This demonstration page uses our WeatherBlox Daily Observations layout. Learn more.

Left ArrowRight Arrow

39.08367, -84.50855

Hourly Observations for March 27, 2018

Temp ( °F °C ) Dew Point ( °F °C ) Humidity (%) Winds ( mph kmh ) Pressure ( in mb ) Visibility ( mi km ) Precip ( " mm )
12:53 am 00:53 Cloudy 52 11.1 37 2.8 57 57 S 9 15 30.22 1023 10 16 N/A
1:22 am 01:22 Cloudy 53 11.7 40 4.4 61 61 S 12 19 30.21 1023 10 16 N/A
1:53 am 01:53 Cloudy 53 11.7 42 5.6 66 66 S 10 17 30.19 1022 10 16 N/A
2:53 am 02:53 Cloudy with Light Rain 51 10.6 47 8.3 86 86 S 7 11 30.18 1022 10 16 0.01 0.25
3:53 am 03:53 Cloudy 51 10.6 47 8.3 86 86 VRB 7 11 30.16 1021 10 16 N/A
4:53 am 04:53 Cloudy 51 10.6 47 8.3 86 86 S 6 9 30.15 1021 10 16 N/A
5:53 am 05:53 Cloudy 51 10.6 47 8.3 86 86 S 5 7 30.14 1021 10 16 N/A
6:53 am 06:53 Cloudy 51 10.6 47 8.3 86 86 S 6 9 30.13 1020 10 16 N/A
7:53 am 07:53 Cloudy 51 10.6 47 8.3 86 86 SSW 3 6 30.15 1021 10 16 N/A
8:53 am 08:53 Cloudy with Light Rain 53 11.7 49 9.4 86 86 SSW 12 19 30.16 1021 10 16 N/A
9:53 am 09:53 Cloudy 55 12.8 50 10 83 83 SSW 16 26 30.15 1021 10 16 N/A
10:53 am 10:53 Cloudy 55 12.8 50 10 83 83 SSW 16 26 30.14 1021 10 16 N/A
11:53 am 11:53 Cloudy 55 12.8 50 10 83 83 SSW 13 20 30.14 1021 10 16 N/A
12:53 pm 12:53 Cloudy 56 13.3 51 10.6 84 84 SSW 14 22 30.12 1020 10 16 N/A
1:53 pm 13:53 Cloudy 56 13.3 51 10.6 84 84 SW 12 19 30.11 1020 10 16 N/A
2:53 pm 14:53 Cloudy 57 13.9 52 11.1 83 83 SSW 12 19 30.09 1019 10 16 N/A
3:53 pm 15:53 Cloudy 58 14.4 52 11.1 81 81 SSW 15 24 30.06 1018 10 16 N/A
4:53 pm 16:53 Cloudy 59 15 53 11.7 81 81 SW 12 19 30.05 1018 10 16 N/A
5:40 pm 17:40 Cloudy with Rain 56 13.3 55 12.8 97 97 WSW 6 9 30.06 1018 2 3 0.05 1.27
5:53 pm 17:53 Cloudy with Rain 56 13.3 55 12.8 97 97 WSW 6 9 30.06 1018 2 3 0.11 2.79
6:25 pm 18:25 Cloudy with Rain 55 12.8 55 12.8 100 100 SSW 3 6 30.06 1018 4 6 0.10 2.54
6:53 pm 18:53 Cloudy with Rain 55 12.8 55 12.8 100 100 SSW 3 6 30.06 1018 3 5 0.14 3.56
7:53 pm 19:53 Cloudy with Light Rain 55 12.8 55 12.8 100 100 N N/A 30.05 1018 3 5 0.09 2.29
8:53 pm 20:53 Cloudy with Light Rain 53 11.7 53 11.7 100 100 NNE 3 6 30.04 1017 1 1 0.05 1.27
9:13 pm 21:13 Cloudy with Light Rain 53 11.7 53 11.7 100 100 N N/A 30.06 1018 1 2 0.01 0.25
9:19 pm 21:19 Cloudy with Light Rain 53 11.7 53 11.7 100 100 N N/A 30.06 1018 1 1 0.01 0.25
9:26 pm 21:26 Cloudy with Light Rain 53 11.7 53 11.7 100 100 N N/A 30.06 1018 1 1 0.01 0.25
9:40 pm 21:40 Cloudy with Fog 53 11.7 53 11.7 100 100 N N/A 30.06 1018 0 0 0.01 0.25
9:53 pm 21:53 Cloudy with Fog 54 12.2 54 12.2 100 100 N N/A 30.04 1017 0 0 0.01 0.25
10:05 pm 22:05 Cloudy with Fog 53 11.7 53 11.7 100 100 N N/A 30.06 1018 0 0 N/A
10:32 pm 22:32 Cloudy with Light Rain 53 11.7 53 11.7 100 100 N N/A 30.06 1018 0 0 0.01 0.25
10:35 pm 22:35 Cloudy with Light Rain 53 11.7 53 11.7 100 100 N N/A 30.06 1018 1 1 0.01 0.25
10:53 pm 22:53 Cloudy with Light Rain 53 11.7 53 11.7 100 100 N N/A 30.05 1018 1 1 0.01 0.25
11:01 pm 23:01 Cloudy with Light Rain 52 11.1 52 11.1 100 100 N N/A 30.06 1018 1 1 N/A
11:20 pm 23:20 Cloudy with Light Rain 53 11.7 53 11.7 100 100 SW 3 6 30.06 1018 1 1 N/A
11:53 pm 23:53 Mostly Cloudy with Light Rain 53 11.7 53 11.7 100 100 N N/A 30.05 1018 1 1 0.02 0.51

Powered by AerisWeather